{"data":{"norad_id":64316,"intl_designator":"2025-123AB","name":"STARLINK-33590","alt_names":[],"object_type":"PAYLOAD","status":"ACTIVE","operator":null,"country":"US","launch_date":"2025-06-08","launch_site_code":"AFWTR","launch_vehicle":null,"mission":null,"orbit_class":"UNKNOWN","rcs_meters":null,"size_class":null,"mass_kg":null,"dimensions":null,"purposes":["comms"],"wikipedia_slug":null,"has_3d_model":false,"image_url":null,"decayed_at":null,"tle_current":{"epoch":"2026-05-25T00:34:14.522016Z","epoch_age_seconds":66366,"freshness":"FRESH","line1":"1 64316U 25123AB  26145.02377919 -.00001524  00000+0 -11993-3 0  9998","line2":"2 64316  70.0015   1.9454 0002523 268.6431  91.4439 14.98337411 53054","mean_motion":14.98337411,"eccentricity":0.0002523,"inclination_deg":70.0015,"raan_deg":1.9454,"arg_perigee_deg":268.6431,"mean_anomaly_deg":91.4439,"bstar":-0.00011993,"rev_number":5305,"period_min":96.106523766161,"perigee_km":570.27944524849,"apogee_km":573.78650101694,"semimajor_km":6950.1699731327,"source":"CELESTRAK","updated_at":"2026-05-25T13:38:20.392408Z"}}}